User: anonymous   Login
Location: Unspecified
(0.0000°N, 0.0000°E)
Time: 20:12:12
(UTC+00:00)
Language:

PicSat - Orbit

View from above orbital plane
View from above orbital plane
View from above satellite
View from above satellite

Ground track
Ground track

The orbit data is extracted from the following two-line orbital elements,

1 43131U 18004W   19340.74698471 +.00001385 +00000-0 +59048-4 0  9995
2 43131 097.4723 048.4925 0009692 022.5367 337.6294 15.24619757105578
Epoch (UTC): 06 December 2019 17:55:39
Eccentricity: 0.0009692
inclination: 97.4723°
perigee height: 485 km
apogee height: 498 km
right ascension of ascending node: 48.4925°
argument of perigee: 22.5367°
revolutions per day: 15.24619757
mean anomaly at epoch: 337.6294°
orbit number at epoch: 10557

The dashed part of the orbit path shows where the satellite is in the earth's shadow,  

DLR